Simultaneous Nadir Overpasses (SNOs) Predictions

Prediction of SNOs between GOES-15 and METOP-A Satellite Orbit:

Table of predicted SNOs for the next 14.0 days since TLE Epoch: 12/19/2020
Index Date Time (GOES-15) GOES-15 Lat,Lon METOP-A Lat,Lon Distance(km) Time Diff (sec)
1 12/20/2020 16:56:51 0.28,-128.23 0.31,-128.36 15.09 80
2 12/23/2020 04:57:53 -0.28,-128.28 -0.22,-128.03 28.52 80
3 12/24/2020 17:14:05 0.26,-128.26 1.21,-132.63 497.66 80
4 12/25/2020 16:56:06 0.27,-128.26 0.12,-127.65 69.93 80
5 12/27/2020 05:12:27 -0.26,-128.29 -1.12,-132.29 455.80 80
6 12/28/2020 04:54:27 -0.27,-128.29 -0.08,-127.30 111.65 80
7 12/29/2020 17:10:39 0.25,-128.26 1.08,-131.91 415.67 80
8 12/30/2020 16:52:40 0.27,-128.25 -0.02,-126.93 151.15 80
9 01/01/2021 05:09:01 -0.26,-128.27 -0.98,-131.57 376.02 80
